QPF
0.04 0.05 0.05 0.05 0.05 0.05 0.05 0.05 0.04 0.04 0.02 0.01 0.01 0.01 0.03 0.03 0.02 0.01 0.01 0.01 0.02 0.03 0.05 0.07 0.08 0.07 0.08 0.08 0.07 0.05 0.03 0.03 0.02 0.01 0.01 0.02 0.02 0.03
0.03 0.04 0.05 0.06 0.05 0.04 0.04 0.04 0.03 0.03 0.03 0.02 0.01 0.01 0.02 0.02 0.01 0.00 0.00 0.00 0.01 0.01 0.02 0.03 0.04 0.05 0.04 0.05 0.06 0.06 0.05 0.02 0.01 0.01 0.01 0.02 0.02 0.02
0.04 0.03 0.04 0.06 0.06 0.04 0.03 0.03 0.03 0.03 0.04 0.02 0.02 0.02 0.02 0.02 0.01 0.01 0.00 0.00 0.00 0.00 0.00 0.01 0.02 0.02 0.02 0.03 0.05 0.05 0.05 0.03 0.01 0.01 0.01 0.01 0.01 0.01
0.06 0.05 0.06 0.07 0.07 0.06 0.04 0.03 0.04 0.03 0.04 0.03 0.02 0.02 0.02 0.01 0.01 0.01 0.01 0.01 0.00 0.00 0.00 0.00 0.01 0.01 0.01 0.02 0.03 0.04 0.04 0.03 0.01 0.01 0.00 0.00 0.01 0.01
0.07 0.07 0.06 0.09 0.09 0.07 0.06 0.04 0.03 0.03 0.03 0.03 0.03 0.03 0.02 0.01 0.01 0.01 0.01 0.01 0.01 0.01 0.00 0.00 0.00 0.00 0.01 0.02 0.02 0.03 0.03 0.02 0.01 0.00 0.00 0.00 0.00 0.00
0.07 0.07 0.08 0.08 0.07 0.07 0.06 0.04 0.03 0.02 0.02 0.02 0.02 0.02 0.02 0.01 0.01 0.01 0.01 0.00 0.01 0.01 0.01 0.00 0.00 0.01 0.01 0.02 0.03 0.02 0.02 0.01 0.01 0.00 0.00 0.00 0.00 0.00
0.07 0.06 0.06 0.08 0.07 0.06 0.05 0.04 0.03 0.02 0.02 0.01 0.01 0.01 0.01 0.01 0.01 0.00 0.00 0.00 0.00 0.00 0.00 0.00 0.01 0.01 0.01 0.01 0.02 0.02 0.02 0.02 0.01 0.01 0.00 0.00 0.00 0.00
0.06 0.05 0.06 0.08 0.07 0.05 0.04 0.04 0.03 0.02 0.02 0.01 0.01 0.01 0.00 0.00 0.01 0.01 0.01 0.01 0.00 0.00 0.00 0.00 0.00 0.01 0.02 0.01 0.01 0.01 0.02 0.02 0.02 0.01 0.01 0.00 0.00 0.00
0.05 0.06 0.05 0.06 0.07 0.06 0.05 0.05 0.04 0.03 0.02 0.01 0.01 0.00 0.00 0.00 0.01 0.01 0.01 0.01 0.01 0.00 0.01 0.01 0.01 0.01 0.01 0.01 0.01 0.01 0.01 0.01 0.01 0.01 0.01 0.01 0.00 0.00
0.06 0.07 0.08 0.08 0.07 0.07 0.07 0.06 0.04 0.03 0.02 0.02 0.01 0.00 0.00 0.00 0.00 0.01 0.01 0.01 0.01 0.01 0.01 0.01 0.01 0.01 0.01 0.01 0.01 0.01 0.01 0.01 0.01 0.01 0.01 0.01 0.00 0.00
0.05 0.08 0.10 0.10 0.11 0.09 0.08 0.06 0.05 0.04 0.04 0.03 0.01 0.01 0.00 0.00 0.00 0.01 0.01 0.01 0.01 0.01 0.01 0.03 0.02 0.02 0.01 0.01 0.01 0.01 0.01 0.02 0.02 0.02 0.02 0.01 0.01 0.01
0.06 0.07 0.08 0.09 0.10 0.08 0.06 0.05 0.03 0.03 0.04 0.03 0.02 0.01 0.01 0.01 0.01 0.00 0.00 0.01 0.00 0.00 0.01 0.02 0.03 0.04 0.04 0.02 0.01 0.01 0.01 0.01 0.02 0.02 0.02 0.02 0.02 0.01
0.05 0.06 0.06 0.07 0.07 0.07 0.06 0.04 0.03 0.03 0.04 0.03 0.02 0.02 0.02 0.01 0.01 0.00 0.00 0.01 0.01 0.00 0.01 0.02 0.04 0.05 0.05 0.05 0.04 0.03 0.02 0.02 0.02 0.02 0.02 0.03 0.03 0.02
0.04 0.04 0.04 0.05 0.05 0.05 0.05 0.05 0.05 0.05 0.04 0.03 0.01 0.01 0.01 0.01 0.01 0.00 0.00 0.01 0.00 0.00 0.01 0.03 0.04 0.05 0.05 0.05 0.05 0.04 0.03 0.02 0.02 0.02 0.02 0.03 0.04 0.04
0.04 0.04 0.03 0.03 0.03 0.03 0.04 0.04 0.04 0.04 0.04 0.03 0.02 0.01 0.01 0.01 0.01 0.01 0.01 0.01 0.01 0.00 0.01 0.01 0.03 0.03 0.04 0.04 0.04 0.03 0.03 0.03 0.02 0.02 0.02 0.01 0.02 0.03
0.03 0.03 0.04 0.03 0.03 0.03 0.04 0.05 0.04 0.03 0.03 0.03 0.02 0.01 0.01 0.01 0.01 0.01 0.02 0.01 0.01 0.01 0.01 0.01 0.02 0.03 0.04 0.04 0.03 0.02 0.02 0.02 0.03 0.03 0.02 0.02 0.01 0.01
0.03 0.02 0.02 0.03 0.03 0.03 0.04 0.05 0.05 0.04 0.03 0.02 0.02 0.02 0.02 0.02 0.02 0.02 0.02 0.02 0.02 0.01 0.01 0.01 0.01 0.02 0.03 0.04 0.02 0.01 0.01 0.01 0.02 0.03 0.03 0.02 0.02 0.01
0.04 0.02 0.02 0.02 0.02 0.02 0.02 0.05 0.07 0.06 0.05 0.03 0.03 0.03 0.03 0.02 0.02 0.02 0.03 0.03 0.02 0.02 0.02 0.02 0.02 0.02 0.03 0.03 0.02 0.01 0.01 0.01 0.02 0.02 0.03 0.03 0.02 0.02
0.03 0.02 0.02 0.02 0.02 0.01 0.02 0.03 0.06 0.07 0.06 0.04 0.03 0.04 0.04 0.03 0.03 0.04 0.05 0.04 0.02 0.02 0.02 0.02 0.02 0.02 0.02 0.02 0.01 0.01 0.02 0.02 0.02 0.02 0.03 0.03 0.04 0.04
0.02 0.01 0.01 0.02 0.02 0.02 0.02 0.03 0.04 0.06 0.06 0.06 0.05 0.04 0.03 0.04 0.03 0.03 0.03 0.03 0.02 0.02 0.02 0.02 0.02 0.02 0.02 0.02 0.01 0.01 0.02 0.03 0.02 0.02 0.02 0.02 0.04 0.05
0.01 0.02 0.02 0.02 0.02 0.02 0.02 0.02 0.03 0.04 0.05 0.05 0.05 0.06 0.06 0.04 0.03 0.03 0.03 0.03 0.03 0.03 0.03 0.03 0.03 0.04 0.04 0.04 0.02 0.01 0.01 0.02 0.03 0.03 0.02 0.02 0.03 0.03
0.02 0.02 0.02 0.02 0.02 0.02 0.02 0.02 0.02 0.03 0.04 0.05 0.05 0.04 0.04 0.04 0.03 0.03 0.04 0.04 0.04 0.04 0.04 0.03 0.04 0.05 0.05 0.04 0.03 0.01 0.01 0.01 0.02 0.03 0.02 0.02 0.02 0.02
0.02 0.02 0.02 0.02 0.02 0.02 0.02 0.02 0.02 0.02 0.03 0.04 0.05 0.05 0.04 0.04 0.03 0.04 0.04 0.04 0.04 0.05 0.05 0.04 0.04 0.05 0.06 0.05 0.05 0.04 0.03 0.03 0.03 0.02 0.02 0.02 0.02 0.02
MSLP
1018.65 1018.89 1019.22 1019.62 1020.09 1020.57 1021.07 1021.53 1021.96 1022.32 1022.62 1022.86 1023.03 1023.13 1023.18 1023.19 1023.16 1023.13 1023.09 1023.07 1023.07 1023.10 1023.15 1023.20 1023.23 1023.22 1023.15 1023.02 1022.82 1022.56 1022.27 1021.98 1021.69 1021.44 1021.23 1021.06 1020.92 1020.81
1018.65 1018.85 1019.11 1019.44 1019.82 1020.24 1020.68 1021.12 1021.54 1021.94 1022.28 1022.58 1022.80 1022.96 1023.05 1023.08 1023.07 1023.02 1022.95 1022.90 1022.86 1022.84 1022.85 1022.87 1022.88 1022.86 1022.80 1022.69 1022.52 1022.29 1022.04 1021.77 1021.50 1021.25 1021.03 1020.84 1020.68 1020.53
1018.66 1018.84 1019.06 1019.33 1019.64 1020.00 1020.39 1020.80 1021.22 1021.62 1022.00 1022.33 1022.61 1022.81 1022.95 1023.01 1023.00 1022.95 1022.87 1022.79 1022.70 1022.64 1022.60 1022.58 1022.55 1022.52 1022.45 1022.35 1022.20 1022.01 1021.80 1021.57 1021.34 1021.12 1020.91 1020.72 1020.53 1020.36
1018.68 1018.85 1019.05 1019.28 1019.55 1019.86 1020.21 1020.59 1020.99 1021.39 1021.78 1022.14 1022.45 1022.69 1022.86 1022.96 1022.97 1022.93 1022.85 1022.74 1022.63 1022.52 1022.43 1022.35 1022.29 1022.21 1022.13 1022.02 1021.88 1021.73 1021.56 1021.37 1021.19 1021.01 1020.84 1020.66 1020.49 1020.30
1018.68 1018.87 1019.07 1019.28 1019.53 1019.81 1020.12 1020.47 1020.84 1021.22 1021.61 1021.97 1022.30 1022.57 1022.77 1022.89 1022.94 1022.92 1022.84 1022.73 1022.60 1022.46 1022.33 1022.20 1022.08 1021.96 1021.84 1021.71 1021.57 1021.43 1021.29 1021.15 1021.02 1020.89 1020.76 1020.62 1020.47 1020.31
1018.65 1018.86 1019.07 1019.30 1019.53 1019.80 1020.08 1020.40 1020.73 1021.09 1021.44 1021.79 1022.12 1022.39 1022.61 1022.76 1022.84 1022.86 1022.81 1022.71 1022.58 1022.43 1022.27 1022.10 1021.92 1021.75 1021.58 1021.41 1021.25 1021.10 1020.97 1020.86 1020.77 1020.69 1020.62 1020.54 1020.43 1020.31
1018.57 1018.80 1019.04 1019.27 1019.51 1019.76 1020.03 1020.31 1020.61 1020.92 1021.24 1021.56 1021.86 1022.13 1022.36 1022.54 1022.65 1022.71 1022.70 1022.64 1022.53 1022.39 1022.21 1022.01 1021.80 1021.57 1021.35 1021.13 1020.92 1020.75 1020.61 1020.51 1020.44 1020.40 1020.38 1020.35 1020.31 1020.23
1018.40 1018.66 1018.92 1019.17 1019.42 1019.67 1019.92 1020.17 1020.44 1020.70 1020.98 1021.25 1021.52 1021.78 1022.01 1022.20 1022.35 1022.45 1022.49 1022.49 1022.42 1022.31 1022.14 1021.94 1021.70 1021.43 1021.15 1020.88 1020.63 1020.41 1020.23 1020.12 1020.05 1020.03 1020.04 1020.06 1020.08 1020.07
1018.15 1018.43 1018.71 1018.98 1019.24 1019.49 1019.74 1019.97 1020.19 1020.42 1020.65 1020.88 1021.12 1021.35 1021.57 1021.78 1021.96 1022.10 1022.20 1022.26 1022.25 1022.18 1022.05 1021.86 1021.62 1021.34 1021.02 1020.71 1020.40 1020.13 1019.91 1019.75 1019.66 1019.64 1019.66 1019.71 1019.77 1019.82
1017.82 1018.12 1018.41 1018.70 1018.98 1019.24 1019.48 1019.70 1019.91 1020.10 1020.30 1020.49 1020.69 1020.90 1021.11 1021.32 1021.53 1021.71 1021.86 1021.97 1022.03 1022.02 1021.95 1021.80 1021.58 1021.30 1020.98 1020.64 1020.29 1019.98 1019.70 1019.50 1019.37 1019.31 1019.32 1019.39 1019.47 1019.57
1017.46 1017.76 1018.07 1018.38 1018.67 1018.95 1019.20 1019.42 1019.62 1019.80 1019.97 1020.13 1020.31 1020.49 1020.69 1020.90 1021.11 1021.32 1021.51 1021.67 1021.79 1021.85 1021.83 1021.75 1021.58 1021.34 1021.04 1020.70 1020.34 1019.99 1019.67 1019.42 1019.24 1019.14 1019.12 1019.16 1019.25 1019.36
1017.09 1017.40 1017.72 1018.05 1018.36 1018.66 1018.92 1019.16 1019.36 1019.54 1019.70 1019.85 1020.01 1020.17 1020.35 1020.55 1020.76 1020.97 1021.18 1021.38 1021.54 1021.66 1021.71 1021.69 1021.59 1021.41 1021.16 1020.85 1020.51 1020.15 1019.82 1019.52 1019.29 1019.14 1019.07 1019.08 1019.15 1019.26
1016.75 1017.07 1017.41 1017.75 1018.09 1018.40 1018.68 1018.93 1019.15 1019.34 1019.50 1019.65 1019.80 1019.95 1020.11 1020.28 1020.47 1020.68 1020.88 1021.09 1021.28 1021.43 1021.54 1021.59 1021.56 1021.46 1021.28 1021.03 1020.73 1020.40 1020.06 1019.75 1019.49 1019.29 1019.17 1019.13 1019.16 1019.25
1016.46 1016.80 1017.14 1017.50 1017.84 1018.17 1018.47 1018.74 1018.97 1019.18 1019.36 1019.51 1019.66 1019.79 1019.93 1020.08 1020.24 1020.41 1020.59 1020.78 1020.97 1021.15 1021.29 1021.40 1021.44 1021.42 1021.32 1021.15 1020.91 1020.62 1020.31 1020.00 1019.72 1019.49 1019.32 1019.24 1019.23 1019.28
1016.20 1016.55 1016.91 1017.26 1017.61 1017.95 1018.25 1018.54 1018.79 1019.01 1019.20 1019.37 1019.51 1019.64 1019.77 1019.88 1020.00 1020.13 1020.27 1020.43 1020.59 1020.76 1020.93 1021.06 1021.16 1021.21 1021.19 1021.09 1020.93 1020.70 1020.43 1020.15 1019.86 1019.62 1019.42 1019.29 1019.24 1019.26
1015.93 1016.28 1016.64 1017.00 1017.34 1017.66 1017.97 1018.26 1018.52 1018.75 1018.96 1019.14 1019.30 1019.43 1019.54 1019.63 1019.72 1019.80 1019.89 1020.00 1020.13 1020.27 1020.43 1020.57 1020.71 1020.80 1020.84 1020.82 1020.72 1020.56 1020.34 1020.08 1019.82 1019.56 1019.35 1019.20 1019.12 1019.11
1015.57 1015.93 1016.29 1016.63 1016.95 1017.26 1017.55 1017.83 1018.10 1018.34 1018.57 1018.77 1018.95 1019.09 1019.20 1019.28 1019.34 1019.39 1019.44 1019.50 1019.58 1019.68 1019.81 1019.95 1020.09 1020.20 1020.28 1020.31 1020.26 1020.15 1019.98 1019.76 1019.52 1019.28 1019.07 1018.90 1018.81 1018.78
1015.07 1015.43 1015.77 1016.08 1016.38 1016.66 1016.94 1017.21 1017.47 1017.73 1017.97 1018.20 1018.41 1018.57 1018.70 1018.80 1018.85 1018.89 1018.91 1018.93 1018.98 1019.04 1019.13 1019.25 1019.37 1019.49 1019.58 1019.63 1019.62 1019.54 1019.41 1019.22 1019.00 1018.78 1018.57 1018.41 1018.31 1018.28
1014.38 1014.72 1015.04 1015.33 1015.60 1015.85 1016.11 1016.36 1016.62 1016.89 1017.16 1017.43 1017.67 1017.88 1018.05 1018.18 1018.26 1018.31 1018.33 1018.34 1018.36 1018.40 1018.46 1018.54 1018.64 1018.74 1018.83 1018.88 1018.88 1018.83 1018.71 1018.55 1018.36 1018.15 1017.96 1017.80 1017.71 1017.68
1013.48 1013.80 1014.10 1014.36 1014.60 1014.83 1015.07 1015.31 1015.58 1015.87 1016.17 1016.47 1016.77 1017.03 1017.26 1017.44 1017.57 1017.66 1017.71 1017.73 1017.76 1017.78 1017.83 1017.90 1017.98 1018.06 1018.13 1018.18 1018.18 1018.13 1018.03 1017.88 1017.70 1017.50 1017.32 1017.18 1017.08 1017.06
1012.39 1012.69 1012.97 1013.21 1013.43 1013.65 1013.87 1014.12 1014.39 1014.70 1015.03 1015.38 1015.73 1016.06 1016.35 1016.60 1016.80 1016.94 1017.04 1017.11 1017.16 1017.21 1017.27 1017.33 1017.40 1017.48 1017.54 1017.58 1017.58 1017.53 1017.43 1017.29 1017.12 1016.94 1016.77 1016.62 1016.53 1016.50
1011.16 1011.45 1011.71 1011.94 1012.15 1012.36 1012.58 1012.83 1013.12 1013.45 1013.81 1014.20 1014.60 1014.98 1015.34 1015.66 1015.93 1016.14 1016.31 1016.44 1016.55 1016.64 1016.73 1016.82 1016.91 1016.99 1017.06 1017.10 1017.10 1017.06 1016.97 1016.84 1016.68 1016.50 1016.33 1016.18 1016.08 1016.03
1009.85 1010.14 1010.39 1010.62 1010.83 1011.04 1011.28 1011.54 1011.84 1012.19 1012.57 1012.99 1013.42 1013.85 1014.25 1014.63 1014.96 1015.24 1015.48 1015.68 1015.86 1016.01 1016.15 1016.29 1016.42 1016.53 1016.62 1016.69 1016.71 1016.68 1016.60 1016.48 1016.33 1016.16 1015.98 1015.83 1015.71 1015.64
Thickness
5691 5690 5690 5690 5689 5689 5688 5686 5680 5673 5674 5680 5682 5685 5685 5684 5684 5682 5681 5680 5680 5679 5678 5677 5677 5676 5675 5673 5672 5671 5670 5669 5667 5666 5665 5664 5663 5662
5687 5686 5686 5686 5686 5685 5685 5683 5682 5677 5673 5677 5679 5682 5682 5681 5680 5679 5678 5677 5676 5676 5675 5674 5674 5673 5672 5671 5669 5668 5667 5666 5665 5663 5662 5661 5660 5659
5683 5683 5682 5682 5681 5681 5681 5679 5678 5676 5672 5673 5675 5677 5677 5677 5676 5675 5674 5673 5673 5672 5672 5671 5671 5670 5669 5667 5666 5665 5664 5663 5662 5660 5659 5658 5656 5655
5678 5678 5678 5678 5677 5676 5676 5675 5674 5673 5670 5668 5669 5670 5671 5672 5672 5671 5671 5670 5669 5669 5669 5668 5668 5667 5666 5664 5663 5663 5661 5660 5659 5657 5656 5655 5653 5652
5674 5674 5674 5673 5671 5671 5671 5670 5669 5670 5668 5665 5664 5665 5666 5667 5666 5666 5666 5665 5666 5666 5665 5665 5665 5664 5663 5662 5661 5660 5659 5658 5656 5654 5653 5651 5650 5648
5670 5669 5669 5669 5668 5667 5666 5665 5665 5663 5662 5660 5659 5659 5660 5661 5660 5659 5659 5660 5660 5662 5662 5661 5662 5661 5661 5659 5658 5657 5656 5655 5653 5651 5650 5648 5647 5645
5664 5665 5665 5666 5665 5664 5663 5661 5660 5658 5656 5654 5653 5653 5654 5654 5654 5654 5653 5653 5655 5657 5657 5657 5658 5657 5657 5657 5655 5655 5653 5652 5650 5649 5647 5646 5644 5642
5659 5659 5660 5660 5661 5660 5660 5659 5658 5655 5652 5650 5649 5649 5650 5650 5651 5650 5648 5646 5646 5652 5650 5652 5653 5653 5654 5654 5654 5652 5651 5649 5648 5646 5645 5643 5642 5640
5654 5654 5655 5657 5656 5655 5655 5654 5654 5653 5653 5650 5647 5647 5648 5649 5647 5645 5644 5643 5644 5647 5645 5646 5648 5648 5651 5651 5651 5649 5648 5647 5645 5644 5642 5641 5639 5637
5651 5651 5650 5651 5652 5650 5649 5648 5648 5649 5649 5648 5648 5648 5648 5647 5646 5644 5642 5641 5642 5643 5642 5640 5644 5645 5648 5648 5648 5647 5645 5644 5643 5641 5639 5638 5636 5635
5647 5647 5647 5647 5647 5646 5643 5642 5642 5643 5644 5645 5645 5644 5644 5643 5642 5638 5636 5633 5633 5637 5639 5637 5639 5640 5642 5644 5645 5644 5642 5641 5639 5638 5636 5635 5633 5631
5641 5641 5642 5642 5642 5640 5638 5637 5635 5636 5637 5638 5638 5638 5638 5638 5638 5636 5634 5630 5629 5630 5635 5633 5633 5633 5633 5638 5640 5640 5638 5637 5635 5634 5633 5631 5629 5626
5634 5635 5636 5637 5636 5635 5634 5633 5633 5632 5631 5630 5631 5632 5632 5633 5633 5633 5633 5631 5628 5628 5632 5630 5628 5627 5627 5629 5632 5634 5633 5632 5631 5630 5629 5628 5625 5622
5629 5630 5630 5630 5630 5630 5629 5630 5629 5627 5625 5624 5624 5626 5627 5628 5630 5630 5630 5630 5630 5630 5631 5628 5626 5624 5622 5622 5624 5627 5628 5628 5628 5627 5625 5624 5621 5620
5624 5624 5624 5624 5624 5624 5625 5625 5624 5622 5620 5619 5620 5622 5624 5626 5626 5626 5626 5626 5626 5627 5627 5627 5625 5624 5621 5620 5620 5621 5622 5624 5624 5623 5622 5620 5619 5617
5616 5617 5617 5618 5618 5618 5619 5619 5619 5619 5618 5617 5618 5619 5620 5620 5620 5621 5620 5620 5619 5622 5624 5624 5624 5622 5619 5619 5618 5618 5619 5618 5620 5619 5618 5617 5616 5615
5608 5608 5608 5609 5610 5611 5611 5612 5613 5613 5613 5614 5614 5614 5614 5615 5616 5616 5616 5615 5614 5615 5617 5619 5620 5619 5619 5617 5615 5616 5616 5616 5617 5616 5614 5613 5613 5613
5600 5600 5601 5602 5602 5603 5604 5605 5606 5607 5608 5608 5609 5609 5609 5610 5610 5611 5611 5611 5610 5611 5612 5613 5613 5612 5612 5614 5615 5614 5614 5613 5614 5612 5611 5609 5609 5610
5593 5594 5594 5596 5596 5597 5598 5599 5600 5601 5602 5602 5603 5604 5605 5605 5605 5605 5606 5606 5607 5607 5608 5608 5607 5606 5604 5606 5611 5612 5610 5610 5609 5608 5607 5605 5605 5607
5585 5587 5588 5589 5590 5590 5591 5592 5594 5595 5595 5596 5597 5598 5599 5599 5600 5600 5600 5601 5602 5602 5603 5603 5603 5603 5602 5603 5604 5606 5607 5605 5604 5603 5602 5601 5601 5602
5579 5580 5581 5582 5583 5584 5585 5586 5587 5588 5589 5590 5591 5591 5593 5593 5594 5594 5595 5595 5596 5596 5597 5599 5601 5601 5599 5597 5596 5598 5600 5601 5601 5599 5598 5595 5594 5594
5573 5573 5575 5576 5576 5577 5578 5579 5580 5581 5582 5583 5584 5585 5586 5587 5588 5589 5589 5590 5590 5591 5593 5594 5595 5593 5591 5590 5590 5591 5592 5594 5595 5595 5594 5595 5592 5591
5567 5567 5568 5569 5570 5570 5571 5572 5573 5573 5574 5575 5577 5578 5578 5580 5581 5582 5583 5584 5585 5585 5586 5586 5586 5585 5585 5585 5584 5584 5585 5586 5586 5586 5587 5590 5591 5591